| time (UTC) | temp F | wind direction | speed MPH | gust MPH | rain 1hr in | rain 24hr in | rain mn in | humidity % | barometer mb |
| 20260510095508 | 50 | 194 | 0.0 | 1.0 | 0.00 | 0.21 | 0.00 | 97 | 1012.1 |
| 20260510095008 | 50 | 193 | 0.0 | 0.0 | 0.00 | 0.21 | 0.00 | 97 | 1012.1 |
| 20260510094532 | 50 | 162 | 0.0 | 2.0 | 0.00 | 0.21 | 0.00 | 96 | 1012.0 |
| 20260510094009 | 50 | 134 | 0.0 | 2.0 | 0.00 | 0.21 | 0.00 | 96 | 1012.0 |
| 20260510093512 | 49 | 38 | 0.0 | 0.0 | 0.00 | 0.21 | 0.00 | 96 | 1012.0 |
| 20260510093027 | 49 | 37 | 0.0 | 0.0 | 0.00 | 0.21 | 0.00 | 96 | 1012.1 |
| 20260510092508 | 49 | 37 | 0.0 | 0.0 | 0.00 | 0.21 | 0.00 | 96 | 1012.0 |
| 20260510092012 | 49 | 37 | 0.0 | 0.0 | 0.00 | 0.21 | 0.00 | 96 | 1012.1 |
| 20260510091523 | 49 | 37 | 0.0 | 0.0 | 0.00 | 0.21 | 0.00 | 96 | 1012.0 |
| 20260510091006 | 49 | 37 | 0.0 | 0.0 | 0.00 | 0.21 | 0.00 | 96 | 1011.9 |
| 20260510090509 | 49 | 37 | 0.0 | 0.0 | 0.00 | 0.21 | 0.00 | 96 | 1012.0 |
| 20260510090004 | 49 | 37 | 0.0 | 0.0 | 0.00 | 0.21 | 0.00 | 96 | 1012.0 |
| 20260510085504 | 49 | 37 | 0.0 | 0.0 | 0.00 | 0.21 | 0.00 | 97 | 1012.0 |
| 20260510085003 | 49 | 37 | 0.0 | 0.0 | 0.00 | 0.21 | 0.00 | 96 | 1012.1 |
| 20260510084507 | 49 | 37 | 0.0 | 0.0 | 0.00 | 0.21 | 0.00 | 96 | 1012.2 |
| 20260510084004 | 49 | 37 | 0.0 | 0.0 | 0.00 | 0.21 | 0.00 | 96 | 1012.2 |
| 20260510083504 | 49 | 37 | 0.0 | 0.0 | 0.00 | 0.21 | 0.00 | 96 | 1012.1 |
| 20260510083017 | 49 | 37 | 0.0 | 0.0 | 0.00 | 0.21 | 0.00 | 96 | 1012.1 |
| 20260510082504 | 49 | 37 | 0.0 | 0.0 | 0.00 | 0.21 | 0.00 | 96 | 1012.1 |
| 20260510082008 | 49 | 37 | 0.0 | 0.0 | 0.00 | 0.21 | 0.00 | 96 | 1012.1 |
| 20260510081517 | 49 | 27 | 0.0 | 0.0 | 0.00 | 0.21 | 0.00 | 96 | 1012.2 |
| 20260510081010 | 48 | 323 | 0.0 | 0.0 | 0.00 | 0.21 | 0.00 | 96 | 1012.1 |
| 20260510080508 | 48 | 323 | 0.0 | 0.0 | 0.00 | 0.21 | 0.00 | 96 | 1012.1 |
| 20260510080022 | 48 | 323 | 0.0 | 0.0 | 0.00 | 0.21 | 0.00 | 96 | 1012.1 |
| 20260510075509 | 48 | 323 | 0.0 | 0.0 | 0.00 | 0.21 | 0.00 | 96 | 1012.0 |
| 20260510075009 | 48 | 323 | 0.0 | 0.0 | 0.00 | 0.21 | 0.00 | 96 | 1012.1 |
| 20260510074535 | 48 | 323 | 0.0 | 0.0 | 0.00 | 0.21 | 0.00 | 96 | 1012.2 |
| 20260510074006 | 48 | 323 | 0.0 | 0.0 | 0.00 | 0.21 | 0.00 | 96 | 1012.2 |
| 20260510073505 | 48 | 323 | 0.0 | 0.0 | 0.00 | 0.21 | 0.00 | 96 | 1012.1 |
| 20260510073010 | 47 | 323 | 0.0 | 0.0 | 0.00 | 0.21 | 0.00 | 96 | 1011.9 |
| 20260510072504 | 47 | 323 | 0.0 | 0.0 | 0.00 | 0.21 | 0.00 | 96 | 1011.8 |
| 20260510072005 | 47 | 323 | 0.0 | 0.0 | 0.00 | 0.21 | 0.00 | 95 | 1011.7 |
| 20260510071519 | 47 | 323 | 0.0 | 0.0 | 0.00 | 0.21 | 0.00 | 95 | 1011.6 |
| 20260510071004 | 48 | 323 | 0.0 | 0.0 | 0.00 | 0.21 | 0.00 | 95 | 1011.5 |
| 20260510070507 | 48 | 323 | 0.0 | 0.0 | 0.00 | 0.21 | 0.00 | 95 | 1011.6 |
| 20260510070020 | 48 | 323 | 0.0 | 0.0 | 0.00 | 0.21 | 0.00 | 95 | 1011.5 |
| 20260510065507 | 48 | 323 | 0.0 | 0.0 | 0.00 | 0.21 | 0.00 | 95 | 1011.7 |
| 20260510065007 | 48 | 323 | 0.0 | 0.0 | 0.00 | 0.21 | 0.00 | 95 | 1011.7 |
| 20260510064521 | 48 | 323 | 0.0 | 0.0 | 0.00 | 0.21 | 0.00 | 95 | 1011.7 |
| 20260510064007 | 48 | 323 | 0.0 | 0.0 | 0.00 | 0.21 | 0.00 | 95 | 1011.7 |
| 20260510063509 | 49 | 323 | 0.0 | 0.0 | 0.00 | 0.21 | 0.00 | 96 | 1011.8 |
| 20260510063025 | 49 | 323 | 0.0 | 0.0 | 0.00 | 0.21 | 0.00 | 96 | 1011.7 |
| 20260510062510 | 49 | 323 | 0.0 | 0.0 | 0.00 | 0.21 | 0.00 | 96 | 1011.7 |
| 20260510062004 | 49 | 323 | 0.0 | 0.0 | 0.00 | 0.21 | 0.00 | 96 | 1011.7 |
| 20260510061515 | 49 | 323 | 0.0 | 1.0 | 0.00 | 0.21 | 0.00 | 96 | 1011.9 |
| 20260510061004 | 49 | 323 | 0.0 | 1.0 | 0.00 | 0.21 | 0.00 | 96 | 1012.0 |
| 20260510060506 | 49 | 324 | 0.0 | 0.0 | 0.00 | 0.21 | 0.00 | 96 | 1011.9 |
| 20260510060017 | 49 | 324 | 0.0 | 0.0 | 0.00 | 0.21 | 0.00 | 96 | 1011.8 |
| 20260510055510 | 49 | 324 | 0.0 | 0.0 | 0.00 | 0.21 | 0.00 | 96 | 1011.9 |
| 20260510055007 | 49 | 324 | 0.0 | 0.0 | 0.00 | 0.21 | 0.00 | 96 | 1011.9 |
| 20260510054520 | 49 | 324 | 0.0 | 0.0 | 0.00 | 0.21 | 0.00 | 96 | 1011.9 |
| 20260510054008 | 49 | 324 | 0.0 | 0.0 | 0.00 | 0.21 | 0.00 | 96 | 1012.0 |
| 20260510053510 | 49 | 324 | 0.0 | 0.0 | 0.00 | 0.21 | 0.00 | 96 | 1012.1 |
| 20260510053024 | 49 | 324 | 0.0 | 0.0 | 0.00 | 0.21 | 0.00 | 96 | 1012.2 |
| 20260510052510 | 49 | 324 | 0.0 | 0.0 | 0.00 | 0.21 | 0.00 | 96 | 1012.2 |
| 20260510052007 | 49 | 324 | 0.0 | 0.0 | 0.00 | 0.21 | 0.00 | 96 | 1012.4 |
| 20260510051528 | 49 | 324 | 0.0 | 0.0 | 0.00 | 0.21 | 0.00 | 96 | 1012.5 |
| 20260510051009 | 49 | 324 | 0.0 | 0.0 | 0.00 | 0.21 | 0.00 | 96 | 1012.4 |
| 20260510050508 | 49 | 324 | 0.0 | 0.0 | 0.00 | 0.21 | 0.00 | 96 | 1012.3 |
| 20260510050016 | 49 | 324 | 0.0 | 0.0 | 0.00 | 0.21 | 0.00 | 96 | 1012.4 |
| 20260510045507 | 49 | 324 | 0.0 | 0.0 | 0.00 | 0.21 | 0.00 | 96 | 1012.3 |
| 20260510045007 | 49 | 324 | 0.0 | 0.0 | 0.00 | 0.21 | 0.00 | 96 | 1012.4 |
| 20260510044518 | 49 | 324 | 0.0 | 0.0 | 0.00 | 0.21 | 0.00 | 96 | 1012.5 |
| 20260510044006 | 49 | 324 | 0.0 | 0.0 | 0.00 | 0.21 | 0.00 | 96 | 1012.5 |
| 20260510043507 | 49 | 324 | 0.0 | 0.0 | 0.00 | 0.21 | 0.00 | 96 | 1012.5 |
| 20260510043022 | 49 | 324 | 0.0 | 0.0 | 0.00 | 0.21 | 0.00 | 96 | 1012.5 |
| 20260510042510 | 49 | 324 | 0.0 | 0.0 | 0.00 | 0.21 | 0.00 | 96 | 1012.4 |
| 20260510042011 | 49 | 324 | 0.0 | 0.0 | 0.00 | 0.21 | 0.00 | 96 | 1012.4 |
| 20260510041532 | 49 | 324 | 0.0 | 0.0 | 0.00 | 0.21 | 0.00 | 96 | 1012.4 |
| 20260510041007 | 49 | 324 | 0.0 | 0.0 | 0.00 | 0.21 | 0.00 | 96 | 1012.5 |
| 20260510040508 | 49 | 324 | 0.0 | 0.0 | 0.00 | 0.21 | 0.00 | 96 | 1012.4 |
| 20260510040028 | 49 | 324 | 0.0 | 0.0 | 0.00 | 0.21 | 0.00 | 96 | 1012.4 |
| 20260510035510 | 49 | 324 | 0.0 | 0.0 | 0.00 | 0.21 | 0.21 | 96 | 1012.4 |
| 20260510035011 | 49 | 324 | 0.0 | 0.0 | 0.00 | 0.21 | 0.21 | 96 | 1012.7 |
| 20260510034516 | 49 | 324 | 0.0 | 0.0 | 0.00 | 0.21 | 0.21 | 96 | 1012.8 |
| 20260510034006 | 49 | 324 | 0.0 | 0.0 | 0.00 | 0.21 | 0.21 | 96 | 1012.7 |
| 20260510033507 | 49 | 324 | 0.0 | 0.0 | 0.00 | 0.21 | 0.21 | 96 | 1012.8 |
| 20260510033027 | 49 | 324 | 0.0 | 0.0 | 0.00 | 0.21 | 0.21 | 96 | 1012.7 |
| 20260510032507 | 49 | 324 | 0.0 | 0.0 | 0.00 | 0.21 | 0.21 | 96 | 1012.6 |
| 20260510032010 | 49 | 324 | 0.0 | 0.0 | 0.00 | 0.21 | 0.21 | 96 | 1012.8 |
| 20260510031529 | 49 | 324 | 0.0 | 0.0 | 0.00 | 0.21 | 0.21 | 96 | 1012.7 |
| 20260510031011 | 49 | 324 | 0.0 | 0.0 | 0.00 | 0.21 | 0.21 | 96 | 1012.9 |
| 20260510030508 | 49 | 324 | 0.0 | 0.0 | 0.00 | 0.21 | 0.21 | 96 | 1012.9 |
| 20260510025509 | 49 | 324 | 0.0 | 0.0 | 0.00 | 0.21 | 0.21 | 96 | 1013.1 |
| 20260510025007 | 49 | 324 | 0.0 | 0.0 | 0.00 | 0.21 | 0.21 | 96 | 1013.2 |
| 20260510024527 | 48 | 324 | 0.0 | 0.0 | 0.00 | 0.21 | 0.21 | 95 | 1013.2 |
| 20260510024010 | 48 | 324 | 0.0 | 0.0 | 0.00 | 0.21 | 0.21 | 96 | 1013.2 |
| 20260510023507 | 49 | 324 | 0.0 | 0.0 | 0.00 | 0.21 | 0.21 | 95 | 1013.1 |
| 20260510023003 | 48 | 324 | 0.0 | 0.0 | 0.00 | 0.21 | 0.21 | 95 | 1013.1 |
| 20260510022506 | 48 | 324 | 0.0 | 0.0 | 0.00 | 0.21 | 0.21 | 95 | 1013.1 |
| 20260510022002 | 48 | 324 | 0.0 | 0.0 | 0.00 | 0.21 | 0.21 | 96 | 1013.2 |
| 20260510021504 | 48 | 324 | 0.0 | 0.0 | 0.00 | 0.21 | 0.21 | 96 | 1013.2 |
| 20260510021002 | 48 | 324 | 0.0 | 0.0 | 0.00 | 0.21 | 0.21 | 95 | 1013.2 |
| 20260510020504 | 48 | 324 | 0.0 | 0.0 | 0.00 | 0.21 | 0.21 | 95 | 1013.3 |
| 20260510020007 | 48 | 324 | 0.0 | 0.0 | 0.00 | 0.21 | 0.21 | 95 | 1013.3 |
| 20260510015504 | 48 | 324 | 0.0 | 0.0 | 0.01 | 0.21 | 0.21 | 95 | 1013.4 |
| 20260510015005 | 48 | 324 | 0.0 | 0.0 | 0.01 | 0.21 | 0.21 | 95 | 1013.4 |
| 20260510014511 | 48 | 324 | 0.0 | 0.0 | 0.01 | 0.21 | 0.21 | 95 | 1013.3 |
| 20260510014003 | 48 | 324 | 0.0 | 0.0 | 0.01 | 0.21 | 0.21 | 95 | 1013.2 |
| 20260510013502 | 48 | 324 | 0.0 | 0.0 | 0.01 | 0.21 | 0.21 | 95 | 1013.2 |
| 20260510013014 | 48 | 324 | 0.0 | 0.0 | 0.01 | 0.21 | 0.21 | 95 | 1013.2 |
| 20260510012506 | 48 | 324 | 0.0 | 0.0 | 0.01 | 0.21 | 0.21 | 95 | 1013.2 |
| 20260510012004 | 48 | 324 | 0.0 | 0.0 | 0.01 | 0.21 | 0.21 | 95 | 1013.2 |
| 20260510011503 | 48 | 324 | 0.0 | 0.0 | 0.01 | 0.21 | 0.21 | 95 | 1013.2 |
| 20260510011002 | 48 | 324 | 0.0 | 0.0 | 0.01 | 0.21 | 0.21 | 95 | 1013.2 |
| 20260510010503 | 48 | 324 | 0.0 | 1.0 | 0.01 | 0.21 | 0.21 | 95 | 1013.3 |
| 20260510010003 | 48 | 324 | 0.0 | 1.0 | 0.01 | 0.21 | 0.21 | 95 | 1013.3 |
| 20260510005503 | 48 | 213 | 0.0 | 0.0 | 0.00 | 0.20 | 0.20 | 95 | 1013.3 |
| 20260510005005 | 48 | 213 | 0.0 | 0.0 | 0.00 | 0.20 | 0.20 | 95 | 1013.1 |
| 20260510004505 | 48 | 199 | 0.0 | 0.0 | 0.00 | 0.20 | 0.20 | 95 | 1013.0 |
| 20260510004006 | 48 | 199 | 0.0 | 0.0 | 0.00 | 0.20 | 0.20 | 95 | 1013.0 |
| 20260510003505 | 48 | 199 | 0.0 | 0.0 | 0.00 | 0.20 | 0.20 | 95 | 1012.9 |
| 20260510003012 | 48 | 199 | 0.0 | 0.0 | 0.00 | 0.20 | 0.20 | 95 | 1013.0 |
| 20260510002504 | 48 | 198 | 0.0 | 0.0 | 0.00 | 0.20 | 0.20 | 95 | 1013.1 |
| 20260510002007 | 48 | 198 | 0.0 | 0.0 | 0.00 | 0.20 | 0.20 | 95 | 1013.2 |
| 20260510001521 | 48 | 198 | 0.0 | 0.0 | 0.00 | 0.20 | 0.20 | 95 | 1013.2 |
| 20260510001004 | 48 | 198 | 0.0 | 0.0 | 0.01 | 0.20 | 0.20 | 95 | 1013.2 |
| 20260510000508 | 48 | 198 | 0.0 | 6.0 | 0.01 | 0.20 | 0.20 | 95 | 1013.3 |
| 20260510000001 | 48 | 198 | 0.0 | 6.0 | 0.01 | 0.20 | 0.20 | 95 | 1013.3 |
| 20260509235504 | 48 | 155 | 0.0 | 0.0 | 0.02 | 0.20 | 0.20 | 95 | 1013.2 |
| 20260509235003 | 48 | 153 | 0.0 | 0.0 | 0.02 | 0.20 | 0.20 | 94 | 1013.1 |
| 20260509234511 | 48 | 153 | 0.0 | 0.0 | 0.02 | 0.20 | 0.20 | 94 | 1013.1 |
| 20260509234005 | 48 | 153 | 0.0 | 0.0 | 0.03 | 0.20 | 0.20 | 94 | 1013.1 |
| 20260509233504 | 48 | 153 | 0.0 | 0.0 | 0.03 | 0.20 | 0.20 | 94 | 1013.1 |
| 20260509233007 | 48 | 153 | 0.0 | 0.0 | 0.03 | 0.20 | 0.20 | 94 | 1013.1 |
| 20260509232504 | 48 | 153 | 0.0 | 0.0 | 0.03 | 0.20 | 0.20 | 94 | 1013.0 |
| 20260509232006 | 49 | 41 | 0.0 | 0.0 | 0.04 | 0.20 | 0.20 | 94 | 1012.9 |
| 20260509231528 | 49 | 41 | 0.0 | 0.0 | 0.04 | 0.20 | 0.20 | 94 | 1012.8 |
| 20260509231003 | 49 | 41 | 0.0 | 0.0 | 0.03 | 0.19 | 0.19 | 94 | 1012.9 |
| 20260509230504 | 49 | 41 | 0.0 | 0.0 | 0.03 | 0.19 | 0.19 | 94 | 1012.9 |
| 20260509230020 | 49 | 41 | 0.0 | 0.0 | 0.03 | 0.19 | 0.19 | 94 | 1012.9 |
| 20260509225505 | 49 | 41 | 0.0 | 0.0 | 0.02 | 0.18 | 0.18 | 94 | 1012.9 |
| 20260509225009 | 49 | 41 | 0.0 | 0.0 | 0.02 | 0.18 | 0.18 | 94 | 1012.7 |
| 20260509224525 | 49 | 41 | 0.0 | 0.0 | 0.03 | 0.18 | 0.18 | 94 | 1012.8 |
| 20260509224003 | 49 | 41 | 0.0 | 0.0 | 0.02 | 0.17 | 0.17 | 94 | 1012.7 |
| 20260509223504 | 49 | 41 | 0.0 | 0.0 | 0.02 | 0.17 | 0.17 | 94 | 1012.8 |
| 20260509223009 | 49 | 41 | 0.0 | 0.0 | 0.02 | 0.17 | 0.17 | 94 | 1012.7 |
| 20260509222504 | 49 | 41 | 0.0 | 0.0 | 0.02 | 0.17 | 0.17 | 94 | 1012.8 |
| 20260509222004 | 49 | 41 | 0.0 | 0.0 | 0.01 | 0.16 | 0.16 | 94 | 1012.9 |
| 20260509221510 | 49 | 41 | 0.0 | 0.0 | 0.01 | 0.16 | 0.16 | 94 | 1012.9 |
| 20260509221005 | 49 | 41 | 0.0 | 0.0 | 0.02 | 0.16 | 0.16 | 94 | 1012.9 |
| 20260509220504 | 49 | 41 | 0.0 | 0.0 | 0.02 | 0.16 | 0.16 | 94 | 1013.0 |
| 20260509220014 | 49 | 41 | 0.0 | 2.0 | 0.03 | 0.16 | 0.16 | 94 | 1013.1 |
| 20260509215505 | 49 | 41 | 0.0 | 2.0 | 0.03 | 0.16 | 0.16 | 94 | 1013.2 |
| 20260509215005 | 49 | 62 | 0.0 | 0.0 | 0.04 | 0.16 | 0.16 | 94 | 1013.2 |
| 20260509214530 | 49 | 62 | 0.0 | 0.0 | 0.03 | 0.15 | 0.15 | 93 | 1013.3 |
| 20260509214007 | 50 | 62 | 0.0 | 0.0 | 0.03 | 0.15 | 0.15 | 93 | 1013.4 |
| 20260509213511 | 50 | 62 | 0.0 | 0.0 | 0.04 | 0.15 | 0.15 | 93 | 1013.6 |
| 20260509213027 | 50 | 63 | 0.0 | 0.0 | 0.05 | 0.15 | 0.15 | 93 | 1013.4 |
| 20260509212509 | 50 | 63 | 0.0 | 0.0 | 0.05 | 0.15 | 0.15 | 93 | 1013.6 |
| 20260509212003 | 50 | 63 | 0.0 | 0.0 | 0.05 | 0.15 | 0.15 | 93 | 1013.5 |
| 20260509211507 | 50 | 63 | 0.0 | 0.0 | 0.05 | 0.15 | 0.15 | 93 | 1013.5 |
| 20260509211005 | 50 | 63 | 0.0 | 0.0 | 0.04 | 0.14 | 0.14 | 93 | 1013.5 |
| 20260509210504 | 50 | 63 | 0.0 | 0.0 | 0.04 | 0.14 | 0.14 | 93 | 1013.5 |
| 20260509210013 | 50 | 63 | 0.0 | 0.0 | 0.03 | 0.13 | 0.13 | 93 | 1013.4 |
| 20260509205505 | 50 | 63 | 0.0 | 0.0 | 0.03 | 0.13 | 0.13 | 93 | 1013.6 |
| 20260509205005 | 50 | 63 | 0.0 | 0.0 | 0.02 | 0.12 | 0.12 | 93 | 1013.5 |
| 20260509204527 | 50 | 63 | 0.0 | 0.0 | 0.02 | 0.12 | 0.12 | 92 | 1013.3 |
| 20260509204006 | 50 | 63 | 0.0 | 0.0 | 0.02 | 0.12 | 0.12 | 92 | 1013.4 |
| 20260509203506 | 50 | 63 | 0.0 | 0.0 | 0.01 | 0.11 | 0.11 | 92 | 1013.5 |
| 20260509203024 | 50 | 63 | 0.0 | 0.0 | 0.00 | 0.10 | 0.10 | 92 | 1013.4 |
| 20260509202508 | 50 | 63 | 0.0 | 0.0 | 0.00 | 0.10 | 0.10 | 91 | 1013.3 |
| 20260509202009 | 50 | 63 | 0.0 | 0.0 | 0.00 | 0.10 | 0.10 | 91 | 1013.3 |
| 20260509201525 | 51 | 64 | 0.0 | 0.0 | 0.00 | 0.10 | 0.10 | 92 | 1013.3 |
| 20260509201006 | 51 | 64 | 0.0 | 0.0 | 0.00 | 0.10 | 0.10 | 91 | 1013.3 |
| 20260509200503 | 51 | 64 | 0.0 | 0.0 | 0.00 | 0.10 | 0.10 | 91 | 1013.4 |
| 20260509200011 | 51 | 64 | 0.0 | 0.0 | 0.00 | 0.10 | 0.10 | 91 | 1013.4 |
| 20260509195505 | 51 | 64 | 0.0 | 0.0 | 0.00 | 0.10 | 0.10 | 91 | 1013.5 |
| 20260509195006 | 51 | 64 | 0.0 | 0.0 | 0.00 | 0.10 | 0.10 | 91 | 1013.3 |
| 20260509194515 | 51 | 64 | 0.0 | 0.0 | 0.00 | 0.10 | 0.10 | 91 | 1013.4 |
| 20260509194007 | 51 | 64 | 0.0 | 0.0 | 0.00 | 0.10 | 0.10 | 91 | 1013.2 |
| 20260509193507 | 51 | 64 | 0.0 | 5.0 | 0.00 | 0.10 | 0.10 | 92 | 1013.2 |
| 20260509193025 | 51 | 360 | 0.0 | 5.0 | 0.00 | 0.10 | 0.10 | 92 | 1013.1 |
| 20260509192506 | 51 | 4 | 0.0 | 4.0 | 0.00 | 0.10 | 0.10 | 92 | 1013.0 |
| 20260509192005 | 51 | 4 | 0.0 | 3.0 | 0.00 | 0.10 | 0.10 | 92 | 1013.1 |
| 20260509191524 | 51 | 17 | 0.0 | 6.0 | 0.00 | 0.10 | 0.10 | 92 | 1013.4 |
| 20260509191010 | 50 | 359 | 0.0 | 6.0 | 0.00 | 0.10 | 0.10 | 93 | 1013.5 |
| 20260509190509 | 50 | 338 | 0.0 | 4.0 | 0.00 | 0.10 | 0.10 | 93 | 1013.4 |
| 20260509190030 | 50 | 1 | 0.0 | 7.0 | 0.01 | 0.10 | 0.10 | 93 | 1013.3 |
| 20260509185510 | 50 | 1 | 0.0 | 7.0 | 0.01 | 0.10 | 0.10 | 93 | 1013.3 |
| 20260509185009 | 50 | 11 | 0.0 | 5.0 | 0.01 | 0.10 | 0.10 | 93 | 1013.6 |
| 20260509184512 | 49 | 360 | 1.0 | 5.0 | 0.01 | 0.10 | 0.10 | 93 | 1013.8 |
| 20260509184002 | 49 | 360 | 0.0 | 5.0 | 0.01 | 0.10 | 0.10 | 93 | 1013.7 |
| 20260509183506 | 49 | 359 | 0.0 | 4.0 | 0.01 | 0.10 | 0.10 | 93 | 1013.7 |
| 20260509183016 | 49 | 11 | 0.0 | 4.0 | 0.01 | 0.10 | 0.10 | 93 | 1013.8 |
| 20260509182504 | 49 | 4 | 0.0 | 4.0 | 0.01 | 0.10 | 0.10 | 93 | 1013.9 |
| 20260509182006 | 49 | 359 | 1.0 | 4.0 | 0.01 | 0.10 | 0.10 | 93 | 1013.9 |
| 20260509181525 | 49 | 360 | 0.0 | 0.0 | 0.01 | 0.10 | 0.10 | 93 | 1014.1 |
| 20260509181007 | 49 | 360 | 0.0 | 0.0 | 0.01 | 0.10 | 0.10 | 93 | 1014.0 |
| 20260509180507 | 48 | 360 | 0.0 | 0.0 | 0.02 | 0.10 | 0.10 | 93 | 1014.1 |
| 20260509180023 | 48 | 360 | 0.0 | 4.0 | 0.01 | 0.09 | 0.09 | 93 | 1014.2 |
| 20260509175511 | 49 | 360 | 0.0 | 4.0 | 0.01 | 0.09 | 0.09 | 93 | 1014.1 |
| 20260509175007 | 48 | 349 | 0.0 | 0.0 | 0.01 | 0.09 | 0.09 | 93 | 1014.2 |
| 20260509174524 | 48 | 348 | 0.0 | 3.0 | 0.01 | 0.09 | 0.09 | 93 | 1014.2 |
| 20260509174011 | 48 | 348 | 0.0 | 3.0 | 0.02 | 0.09 | 0.09 | 93 | 1014.1 |
| 20260509173511 | 48 | 348 | 0.0 | 4.0 | 0.02 | 0.09 | 0.09 | 93 | 1014.4 |
| 20260509173010 | 48 | 349 | 0.0 | 4.0 | 0.02 | 0.09 | 0.09 | 93 | 1014.3 |
| 20260509172507 | 48 | 1 | 0.0 | 2.0 | 0.02 | 0.09 | 0.09 | 93 | 1014.2 |
| 20260509172004 | 48 | 13 | 0.0 | 0.0 | 0.03 | 0.09 | 0.09 | 93 | 1014.8 |
| 20260509171516 | 48 | 13 | 0.0 | 0.0 | 0.03 | 0.09 | 0.09 | 93 | 1015.0 |
| 20260509171002 | 48 | 13 | 0.0 | 0.0 | 0.03 | 0.09 | 0.09 | 93 | 1014.9 |
| 20260509170503 | 48 | 13 | 0.0 | 0.0 | 0.02 | 0.08 | 0.08 | 93 | 1015.0 |
| 20260509170005 | 48 | 13 | 0.0 | 0.0 | 0.02 | 0.08 | 0.08 | 93 | 1015.1 |
| 20260509165503 | 48 | 13 | 0.0 | 0.0 | 0.02 | 0.08 | 0.08 | 92 | 1014.9 |
| 20260509165003 | 48 | 13 | 0.0 | 0.0 | 0.02 | 0.08 | 0.08 | 92 | 1014.9 |
| 20260509164504 | 48 | 13 | 0.0 | 0.0 | 0.02 | 0.08 | 0.08 | 92 | 1015.0 |
| 20260509164003 | 48 | 13 | 0.0 | 0.0 | 0.01 | 0.07 | 0.07 | 92 | 1015.2 |
| 20260509163503 | 48 | 13 | 0.0 | 0.0 | 0.02 | 0.07 | 0.07 | 92 | 1015.1 |
| 20260509163018 | 48 | 13 | 0.0 | 0.0 | 0.02 | 0.07 | 0.07 | 92 | 1015.0 |
| 20260509162504 | 48 | 13 | 0.0 | 0.0 | 0.02 | 0.07 | 0.07 | 91 | 1014.9 |
| 20260509162004 | 48 | 13 | 0.0 | 4.0 | 0.01 | 0.06 | 0.06 | 91 | 1014.9 |
| 20260509161514 | 48 | 13 | 0.0 | 4.0 | 0.02 | 0.06 | 0.06 | 92 | 1014.6 |
| 20260509161004 | 48 | 15 | 0.0 | 3.0 | 0.02 | 0.06 | 0.06 | 92 | 1014.6 |
| 20260509160504 | 48 | 17 | 0.0 | 0.0 | 0.02 | 0.06 | 0.06 | 92 | 1014.7 |
| 20260509160020 | 47 | 17 | 0.0 | 0.0 | 0.02 | 0.06 | 0.06 | 92 | 1014.8 |
| 20260509155507 | 47 | 117 | 0.0 | 0.0 | 0.02 | 0.06 | 0.06 | 92 | 1015.0 |
| 20260509155002 | 47 | 141 | 0.0 | 0.0 | 0.02 | 0.06 | 0.06 | 91 | 1015.1 |
| 20260509154504 | 47 | 141 | 0.0 | 0.0 | 0.02 | 0.06 | 0.06 | 91 | 1015.2 |
| 20260509154004 | 47 | 141 | 0.0 | 0.0 | 0.02 | 0.06 | 0.06 | 91 | 1015.4 |
| 20260509153504 | 47 | 141 | 0.0 | 0.0 | 0.02 | 0.05 | 0.05 | 91 | 1015.5 |
| 20260509153011 | 47 | 141 | 0.0 | 0.0 | 0.02 | 0.05 | 0.05 | 90 | 1015.6 |
| 20260509152504 | 47 | 141 | 0.0 | 0.0 | 0.02 | 0.05 | 0.05 | 90 | 1015.6 |
| 20260509152005 | 47 | 141 | 0.0 | 0.0 | 0.02 | 0.05 | 0.05 | 90 | 1015.6 |
| 20260509151513 | 47 | 141 | 0.0 | 0.0 | 0.01 | 0.04 | 0.04 | 90 | 1015.5 |
| 20260509151004 | 47 | 141 | 0.0 | 0.0 | 0.02 | 0.04 | 0.04 | 90 | 1015.5 |
| 20260509150507 | 47 | 141 | 0.0 | 0.0 | 0.02 | 0.04 | 0.04 | 90 | 1015.7 |
| 20260509150019 | 47 | 141 | 0.0 | 0.0 | 0.02 | 0.04 | 0.04 | 90 | 1015.7 |
| 20260509145505 | 47 | 141 | 0.0 | 0.0 | 0.02 | 0.04 | 0.04 | 90 | 1015.7 |
| 20260509145005 | 47 | 141 | 0.0 | 0.0 | 0.03 | 0.04 | 0.04 | 90 | 1015.7 |
| 20260509144518 | 47 | 141 | 0.0 | 0.0 | 0.03 | 0.04 | 0.04 | 90 | 1015.7 |
| 20260509144009 | 47 | 141 | 0.0 | 0.0 | 0.03 | 0.04 | 0.04 | 90 | 1015.8 |
| 20260509143509 | 47 | 141 | 0.0 | 0.0 | 0.02 | 0.03 | 0.03 | 89 | 1015.8 |
| 20260509143015 | 47 | 141 | 0.0 | 2.0 | 0.03 | 0.03 | 0.03 | 89 | 1015.8 |
| 20260509142503 | 47 | 139 | 0.0 | 2.0 | 0.03 | 0.03 | 0.03 | 89 | 1015.8 |
| 20260509142004 | 47 | 146 | 0.0 | 0.0 | 0.03 | 0.03 | 0.03 | 90 | 1015.8 |
| 20260509141508 | 47 | 146 | 0.0 | 0.0 | 0.03 | 0.03 | 0.03 | 90 | 1015.9 |
| 20260509141004 | 47 | 146 | 0.0 | 0.0 | 0.02 | 0.02 | 0.02 | 90 | 1015.9 |
| 20260509140505 | 47 | 146 | 0.0 | 0.0 | 0.02 | 0.02 | 0.02 | 89 | 1015.8 |
| 20260509140014 | 47 | 146 | 0.0 | 0.0 | 0.02 | 0.02 | 0.02 | 89 | 1015.8 |
| 20260509135504 | 47 | 146 | 0.0 | 0.0 | 0.02 | 0.02 | 0.02 | 89 | 1015.7 |
| 20260509135007 | 47 | 146 | 0.0 | 0.0 | 0.01 | 0.01 | 0.01 | 89 | 1015.8 |
| 20260509134518 | 46 | 146 | 0.0 | 0.0 | 0.01 | 0.01 | 0.01 | 89 | 1015.6 |
| 20260509134005 | 46 | 146 | 0.0 | 0.0 | 0.01 | 0.01 | 0.01 | 90 | 1015.6 |
| 20260509133508 | 46 | 146 | 0.0 | 0.0 | 0.01 | 0.01 | 0.01 | 90 | 1015.5 |
| 20260509133021 | 46 | 146 | 0.0 | 0.0 | 0.00 | 0.00 | 0.00 | 89 | 1015.5 |
| 20260509132506 | 46 | 146 | 0.0 | 0.0 | 0.00 | 0.00 | 0.00 | 89 | 1015.5 |
| 20260509132009 | 46 | 146 | 0.0 | 0.0 | 0.00 | 0.00 | 0.00 | 88 | 1015.5 |
| 20260509131503 | 46 | 146 | 0.0 | 0.0 | 0.00 | 0.00 | 0.00 | 87 | 1015.5 |
| 20260509131003 | 46 | 146 | 0.0 | 0.0 | 0.00 | 0.00 | 0.00 | 87 | 1015.5 |
| 20260509130504 | 46 | 146 | 0.0 | 0.0 | 0.00 | 0.00 | 0.00 | 87 | 1015.5 |
| 20260509130021 | 45 | 146 | 0.0 | 0.0 | 0.00 | 0.00 | 0.00 | 86 | 1015.6 |
| 20260509125507 | 45 | 146 | 0.0 | 0.0 | 0.00 | 0.00 | 0.00 | 86 | 1015.4 |
| 20260509125013 | 45 | 146 | 0.0 | 0.0 | 0.00 | 0.00 | 0.00 | 86 | 1015.5 |
| 20260509124520 | 45 | 146 | 0.0 | 0.0 | 0.00 | 0.00 | 0.00 | 86 | 1015.6 |
| 20260509124006 | 45 | 146 | 0.0 | 0.0 | 0.00 | 0.00 | 0.00 | 86 | 1015.6 |
| 20260509123506 | 44 | 146 | 0.0 | 0.0 | 0.00 | 0.00 | 0.00 | 87 | 1015.6 |
| 20260509123025 | 44 | 146 | 0.0 | 0.0 | 0.00 | 0.00 | 0.00 | 87 | 1015.7 |
| 20260509122506 | 44 | 146 | 0.0 | 0.0 | 0.00 | 0.00 | 0.00 | 87 | 1015.8 |
| 20260509122007 | 43 | 146 | 0.0 | 0.0 | 0.00 | 0.00 | 0.00 | 87 | 1015.8 |
| 20260509121524 | 43 | 146 | 0.0 | 0.0 | 0.00 | 0.00 | 0.00 | 89 | 1015.8 |
| 20260509121013 | 43 | 146 | 0.0 | 0.0 | 0.00 | 0.00 | 0.00 | 89 | 1015.8 |
| 20260509120509 | 43 | 146 | 0.0 | 0.0 | 0.00 | 0.00 | 0.00 | 89 | 1015.8 |
| 20260509120028 | 42 | 146 | 0.0 | 0.0 | 0.00 | 0.00 | 0.00 | 89 | 1015.9 |
| 20260509115503 | 42 | 146 | 0.0 | 0.0 | 0.00 | 0.00 | 0.00 | 88 | 1015.8 |
| 20260509115007 | 42 | 139 | 0.0 | 0.0 | 0.00 | 0.00 | 0.00 | 89 | 1016.0 |
| 20260509114513 | 42 | 63 | 0.0 | 0.0 | 0.00 | 0.00 | 0.00 | 89 | 1015.6 |
| 20260509114004 | 41 | 63 | 0.0 | 0.0 | 0.00 | 0.00 | 0.00 | 90 | 1015.8 |
| 20260509113504 | 41 | 63 | 0.0 | 0.0 | 0.00 | 0.00 | 0.00 | 90 | 1015.7 |
| 20260509113014 | 41 | 63 | 0.0 | 0.0 | 0.00 | 0.00 | 0.00 | 90 | 1015.7 |
| 20260509112508 | 41 | 63 | 0.0 | 0.0 | 0.00 | 0.00 | 0.00 | 91 | 1015.7 |
| 20260509112008 | 40 | 63 | 0.0 | 0.0 | 0.00 | 0.00 | 0.00 | 91 | 1015.8 |
| 20260509111522 | 40 | 63 | 0.0 | 0.0 | 0.00 | 0.00 | 0.00 | 92 | 1015.8 |
| 20260509111007 | 40 | 63 | 0.0 | 0.0 | 0.00 | 0.00 | 0.00 | 92 | 1015.8 |
| 20260509110506 | 40 | 63 | 0.0 | 0.0 | 0.00 | 0.00 | 0.00 | 92 | 1015.8 |
| 20260509110025 | 39 | 63 | 0.0 | 0.0 | 0.00 | 0.00 | 0.00 | 92 | 1015.8 |
| 20260509105507 | 39 | 63 | 0.0 | 0.0 | 0.00 | 0.00 | 0.00 | 92 | 1015.7 |
| 20260509105008 | 39 | 63 | 0.0 | 0.0 | 0.00 | 0.00 | 0.00 | 92 | 1015.8 |
| 20260509104526 | 39 | 63 | 0.0 | 0.0 | 0.00 | 0.00 | 0.00 | 92 | 1015.8 |
| 20260509104009 | 39 | 63 | 0.0 | 0.0 | 0.00 | 0.00 | 0.00 | 92 | 1015.8 |
| 20260509103506 | 38 | 63 | 0.0 | 0.0 | 0.00 | 0.00 | 0.00 | 93 | 1015.8 |
| 20260509103010 | 38 | 63 | 0.0 | 0.0 | 0.00 | 0.00 | 0.00 | 93 | 1015.7 |
| 20260509102504 | 38 | 63 | 0.0 | 0.0 | 0.00 | 0.00 | 0.00 | 93 | 1015.8 |
| 20260509102007 | 38 | 63 | 0.0 | 0.0 | 0.00 | 0.00 | 0.00 | 93 | 1015.9 |
| 20260509101516 | 37 | 63 | 0.0 | 0.0 | 0.00 | 0.00 | 0.00 | 93 | 1015.7 |
| 20260509101008 | 37 | 63 | 0.0 | 0.0 | 0.00 | 0.00 | 0.00 | 93 | 1015.6 |
| 20260509100506 | 37 | 63 | 0.0 | 0.0 | 0.00 | 0.00 | 0.00 | 93 | 1015.6 |
| 20260509100024 | 36 | 63 | 0.0 | 0.0 | 0.00 | 0.00 | 0.00 | 93 | 1015.5 |